Regional Weather Roundup
Issued by NWS

Home | Current Version | Previous Version | Text Only | Print | Product List | Glossary On
Versions: 1 2 3 4 5 6 7 8 9 10 11 12 13 14 15 16 17 18 19 20 21 22 23 24 25 26 27 28 29 30 31 32 33 34 35 36 37 38 39 40 41 42 43 44 45 46 47 48 49 50
108
ASUS43 KDTX 292110
RWRMI
MICHIGAN HOURLY REGIONAL WEATHER ROUNDUP
NATIONAL WEATHER SERVICE DETROIT/PONTIAC MI
500 PM EDT FRI APR 29 2016

NOTE: "FAIR" INDICATES FEW OR NO CLOUDS BELOW 12,000 FEET WITH NO
SIGNIFICANT WEATHER AND/OR OBSTRUCTION TO VISIBILITY.

MIZ047>049-052>055-059>063-066>070-074>076-081>083-292200-
SOUTHEAST LOWER MICHIGAN

CITY           SKY/WX    TMP DP  RH WIND       PRES   REMARKS
ADRIAN         CLOUDY    53  40  61 E13       30.08R
ALMA           SUNNY     51  37  58 NE10G24   30.10F
ANN ARBOR      CLOUDY    50  38  63 NE3       30.09R
BAD AXE        CLOUDY    48  32  54 E7        30.15R
CARO           CLOUDY    53  40  61 N9        30.10F
DETROIT CITY   CLOUDY    51  36  56 NE8       30.08F
DETROIT        CLOUDY    50  36  58 N9        30.10S
FLINT          CLOUDY    52  37  56 NE8       30.10F
GROSSE ILE     CLOUDY    48  37  66 NE9       30.09S
HILLSDALE      CLOUDY    53  40  61 N5        30.07R
HOWELL         CLOUDY    49  38  66 NE6       30.08S

CITY           SKY/WX    TMP DP  RH WIND       PRES   REMARKS
JACKSON        CLOUDY    53  39  59 VRB7      30.08R
LAMBERTVILLE   CLOUDY    52  40  64 E6        30.09R
LANSING        CLOUDY    49  39  68 E8        30.11R
LAPEER         PTSUNNY   49  33  53 NE6       30.11S
MASON          CLOUDY    48  39  70 N5        30.09S
MONROE         CLOUDY    50  40  69 NE7       30.09R
MT. CLEMENS    CLOUDY    52  36  55 NE10      30.07F
PONTIAC        CLOUDY    50  36  58 VRB6      30.07F
PORT HOPE        N/A     44  36  73 N3        30.14R
PORT HURON     MOSUNNY   50  30  46 N9        30.09F
TRI CITIES     MOSUNNY   53  35  50 N8        30.11F
MIDLAND        FAIR      52  33  48 NE12G18   30.09F
TROY           CLOUDY    53  33  47 E13       30.09F
SAGINAW HB     PTSUNNY   50  39  66 N5        30.10F
$$
MIZ043>046-050>051-056>058-064>065-071>073-077>080-292200-
SOUTHWEST LOWER MICHIGAN

CITY           SKY/WX    TMP DP  RH WIND       PRES   REMARKS
BATTLE CREEK   CLOUDY    52  39  61 N5        30.08R
BENTON HARBOR  CLOUDY    48  41  76 NW5       30.10R
BIG RAPIDS     SUNNY     54  31  40 E5        30.07F
COLDWATER      CLOUDY    54  41  62 NE6       30.07R
FREMONT        FAIR      55  33  44 NE9       30.08S
HOLLAND        CLOUDY    53  40  61 NE6       30.09S
GRAND RAPIDS   CLOUDY    54  41  61 NE10      30.09S
IONIA          CLOUDY    48  37  66 SE6       30.11R
KALAMAZOO      CLOUDY    53  39  59 NE3       30.09R
LUDINGTON      SUNNY     51  33  49 NW9       30.10S
MARSHALL       CLOUDY    53  39  61 NE5       30.08R
MOUNT PLEASANT SUNNY     54  33  44 NE12      30.10S
MUSKEGON       PTSUNNY   54  38  54 E9        30.09F
SOUTH HAVEN    CLOUDY    48  41  76 NW5       30.10S
$$
MIZ016>042-292200-
NORTHERN LOWER MICHIGAN

CITY           SKY/WX    TMP DP  RH WIND       PRES   REMARKS
ALPENA         SUNNY     55  28  35 N8        30.16R
BEAVER ISLAND  MOSUNNY   55  28  35 E8        30.14F
BELLAIRE       PTSUNNY   61  29  29 NW7       30.09F
CADILLAC       PTSUNNY   56  31  39 E8        30.07F
CHARLEVOIX     MOSUNNY   51  33  50 N9        30.16F
FRANKFORT      SUNNY     53  35  49 N13       30.09F
GAYLORD        PTSUNNY   57  28  33 NE8       30.11F
GRAYLING       CLOUDY    57  28  33 NE9       30.11F
HARBOR SPRINGS PTSUNNY   57  29  34 SE6       30.13F
HOUGHTON LAKE  CLOUDY    56  32  40 S9        30.09F
MANISTEE       SUNNY     48  32  53 N13       30.10F
OSCODA         CLOUDY    48  31  52 E7        30.14F
PELLSTON       SUNNY     57  28  33 NE9       30.14S
ROGERS CITY    SUNNY     49  30  49 NE6       30.17R
TRAVERSE CITY  MOSUNNY   57  31  37 NE9       30.09F
$$
MIZ007>008-015-292200-
EASTERN UPPER MICHIGAN

CITY           SKY/WX    TMP DP  RH WIND       PRES   REMARKS
KINROSS          N/A     55  28  35 S8        30.13R
MACKINAC ISLAN CLOUDY    50  27  40 SE8       30.14F
NEWBERRY       CLOUDY    57  31  36 NW9       30.12S
S. S. MARIE    SUNNY     57  30  35 W9        30.12R
MUNISING         N/A     43  34  70 NE12      30.17S
$$
MIZ004>006-011>014-085-292200-
CENTRAL UPPER MICHIGAN

CITY           SKY/WX    TMP DP  RH WIND       PRES   REMARKS
MANISTIQUE     CLOUDY    53  27  37 S7        30.13F
ESCANABA       SUNNY     54  27  35 S12       30.13F
MENOMINEE      SUNNY     52  27  37 E8        30.13F
SAWYER-GWINN   MOSUNNY   52  27  37 N15       30.14F
$$
MIZ001>003-009>011-084-292200-
WESTERN UPPER MICHIGAN

CITY           SKY/WX    TMP DP  RH WIND       PRES   REMARKS
IRON MOUNTAIN  CLOUDY    57  24  28 MISG      30.09F
HOUGHTON       SUNNY     50  32  50 E9        30.16S
COPPER HARBOR    N/A     43  34  70 NE3       30.20R
IRONWOOD         N/A     48  30  49 N12       30.13F
$$

ABBREVIATIONS USED IN REMARKS
   TC - TEMPERATURE IN CELSIUS
  WCI - WIND CHILL INDEX
   HX - HEAT INDEX
  VSB - VISIBILITY





USA.gov is the U.S. government's official web portal to all federal, state and local government web resources and services.